Regional Weather Roundup
Issued by NWS Northern Indiana

Home | Current Version | Previous Version | Text Only | Print | Product List | Glossary Off
Versions: 1 2 3 4 5 6 7 8 9 10 11 12 13 14 15 16 17 18 19 20 21 22 23 24 25 26 27 28 29 30 31 32 33 34 35 36 37 38 39 40 41 42 43 44 45 46 47 48 49 50

000
ASUS43 KIWX 210400
RWRIWX

KIWX WEATHER ROUNDUP
NATIONAL WEATHER SERVICE NORTHERN INDIANA
1100 PM EST SAT DEC 20 2014

NOTE: "FAIR" INDICATES FEW OR NO CLOUDS BELOW 12,000 FEET WITH NO
SIGNIFICANT WEATHER AND/OR OBSTRUCTIONS TO VISIBILITY.

* THESE STATIONS ARE NOT UNDER NWS QUALITY CONTROL. THEY ALSO MAY NOT
  REPORT WEATHER SUCH AS PRECIPITATION OR FOG.

INZ001>027-210500-
NORTHERN INDIANA

CITY           SKY/WX    TMP DP  RH WIND       PRES   REMARKS
GARY*          CLOUDY    34  24  68 S3        30.27F
SOUTH BEND     CLOUDY    32  26  78 SW6       30.28R WCI  26
GOSHEN         CLOUDY    31  28  89 SW5       30.27S FOG     WCI  26
ANGOLA*        CLOUDY    28  18  64 CALM      30.26S
FORT WAYNE     CLOUDY    30  27  88 SW5       30.29R WCI  25

$$
INZ028>050-210500-
CENTRAL INDIANA

CITY           SKY/WX    TMP DP  RH WIND       PRES   REMARKS
LAFAYETTE      CLOUDY    30  26  85 SE3       30.28F
KOKOMO*        CLOUDY    30  27  86 CALM      30.28S
MUNCIE*        CLEAR     25  21  85 CALM      30.28S
INDIANAPOLIS   PTCLDY    25  21  85 CALM      30.29R

$$
MIZ043>046-050>051-056>058-064>065-071>073-077>080-210500-
SOUTHWEST LOWER MICHIGAN

CITY           SKY/WX    TMP DP  RH WIND       PRES   REMARKS
BATTLE CREEK   CLOUDY    31  26  82 CALM      30.26S
BENTON HARBOR  CLOUDY    31  26  82 S3        30.27S
COLDWATER*     CLOUDY    29  27  92 MISG      30.26S
HILLSDALE*     CLOUDY    25  23  94 CALM      30.24F FOG
HOLLAND        CLOUDY    32  28  85 S6        30.26S WCI  26
GRAND RAPIDS   LGT SNOW  30  25  81 SE5       30.26F WCI  25
KALAMAZOO      CLOUDY    30  27  88 S3        30.27S FOG
STURGIS*       CLOUDY    28  28 100 CALM      30.26S FOG
THREE RIVERS*  CLOUDY    30  28  93 CALM      30.27S FOG

$$
OHZ001>008-015>018-024>025-210500-
NORTHWEST OHIO

CITY           SKY/WX    TMP DP  RH WIND       PRES   REMARKS
DEFIANCE       PTCLDY    24  20  84 CALM      30.29S FOG
FINDLAY        CLEAR     25  23  92 SW3       30.27S FOG
TOLEDO EXPRESS CLOUDY    29  23  78 CALM      30.28S
TOLEDO METCALF CLOUDY    30  24  78 SE3       30.29F
LIMA           CLOUDY    32  25  75 S3        30.27S HAZE

$$
AND FOR LAKE MICHIGAN COASTAL AND OPEN LAKE BUOY OBSERVATIONS

STATION/POSITION TEMP    WIND        PRES    VSBY  WAVE
                 AIR SEA DIR/SP/G                  HT/PER
                 (F)     (DEG/KT/KT) (MB)    (MI)  (FT/S)
CALUMET HARBOR    33     160/  5/  8 1023.5F
SAINT JOSEPH      32     150/  3/  6 1025.4R

$$
&&



USA.gov is the U.S. government's official web portal to all federal, state and local government web resources and services.